(57465) = 2001 SH108

Discovered at Socorro on 2001-09-20 by LINEAR.

Orbit

Orbit type: Main Belt

Note: WebGL enabled browser required.

epoch2024-03-31.0
epoch JD2460400.5
perihelion date2019-11-28.28901
perihelion JD2458815.78901
argument of perihelion (°)226.73889
ascending node (°)249.16628
inclination (°)12.92871
eccentricity0.0767797
perihelion distance (AU)2.4639829
Tisserand w.r.t. Jupiter3.3
ΔV w.r.t. Earth (km/sec)10.6
semimajor axis (AU)2.6689002
mean anomaly (°)358.22461
mean daily motion (°/day)0.22605040
aphelion distance (AU)2.874
period (years)4.36
P-vector [x]-0.41962859
P-vector [y]0.88407964
P-vector [z]0.20570620
Q-vector [x]-0.88328079
Q-vector [y]-0.34550885
Q-vector [z]-0.31692064
absolute magnitude14.52
phase slope0.15
uncertainty0
referenceMPEC 2024-D06
observations used2110
oppositions20
arc length (days)9043
first opposition used1999
last opposition used2024
residual rms (arc-secs)0.64
perturbers coarse indicatorM-v
perturbers precise indicator003Ek
first observation date used1999-05-13.0
last observation date used2024-02-14.0
computer nameMPCLINUX
JD of orbit computation2456966.724519
perihelion JD uncertainty (days)2.0715E-04
argument of perihelion uncertainty (°)5.0567E-05
ascending node uncertainty (°)2.4444E-05
inclination uncertainty (°)5.9638E-06
eccentricity uncertainty 4.8847E-08
perihelion distance uncertainty (AU)1.2729E-07
Minimum Orbit Intersection Distances (in AU)
for orbit epoch: 2460400.5, reference: E2024-D06
Mercury2.15614
Venus1.76076
Earth1.49842
Mars0.91824
Jupiter2.35195
Saturn6.54817
Uranus15.967
Neptune27.2121

Observations

2155 total observations over interval: 1999 05 13.25645 – 2024 02 14.299031
These data are available for download (format description).

Date (UT) J2000 RA J2000 Dec Magn Location Ref
1999 05 13.25645 14 51 01.20 -24 00 28.0 18.3 R 699 – Lowell Observatory-LONEOS MPS 61161
1999 05 13.28191 14 50 59.79 -24 00 14.9   699 – Lowell Observatory-LONEOS MPS 61161
1999 05 13.30737 14 50 58.45 -24 00 02.6   699 – Lowell Observatory-LONEOS MPS 61161
1999 05 18.22131 14 46 50.54 -23 18 12.5 18.6   704 – Lincoln Laboratory ETS, New Mexico MPS 39376
1999 05 18.23531 14 46 49.89 -23 18 05.6 18.6   704 – Lincoln Laboratory ETS, New Mexico MPS 39376
1999 05 18.24944 14 46 48.95 -23 18 00.4 18.8   704 – Lincoln Laboratory ETS, New Mexico MPS 39376
1999 05 18.26346 14 46 48.49 -23 17 50.1 18.8   704 – Lincoln Laboratory ETS, New Mexico MPS 39376
1999 05 18.27748 14 46 47.61 -23 17 45.4 19.0   704 – Lincoln Laboratory ETS, New Mexico MPS 39376
2000 07 30.30324 21 12 44.27 +02 54 02.5 18.7   704 – Lincoln Laboratory ETS, New Mexico MPS 39376
2000 07 30.31677 21 12 43.51 +02 54 02.5 18.6   704 – Lincoln Laboratory ETS, New Mexico MPS 39376
2000 07 30.33037 21 12 42.81 +02 54 00.7 18.9   704 – Lincoln Laboratory ETS, New Mexico MPS 39376
2000 07 30.34384 21 12 42.14 +02 54 00.7 18.9   704 – Lincoln Laboratory ETS, New Mexico MPS 39376
2000 08 31.23909 20 46 52.40 +01 16 43.8 18.3   704 – Lincoln Laboratory ETS, New Mexico MPS 39376
2000 08 31.25234 20 46 51.89 +01 16 39.6 18.6   704 – Lincoln Laboratory ETS, New Mexico MPS 39376
2000 08 31.26559 20 46 51.33 +01 16 36.7 18.0   704 – Lincoln Laboratory ETS, New Mexico MPS 39376
2000 08 31.27880 20 46 50.80 +01 16 32.4 18.3   704 – Lincoln Laboratory ETS, New Mexico MPS 39376
2000 08 31.29207 20 46 50.23 +01 16 28.8 18.4   704 – Lincoln Laboratory ETS, New Mexico MPS 39376
2000 09 23.12625 20 38 01.72 -00 38 48.5 19.0   704 – Lincoln Laboratory ETS, New Mexico MPS 39376
2000 09 23.14080 20 38 01.60 -00 38 52.7 19.2   704 – Lincoln Laboratory ETS, New Mexico MPS 39376
2000 09 23.15643 20 38 01.53 -00 38 57.4 19.2   704 – Lincoln Laboratory ETS, New Mexico MPS 39376
2000 09 23.17098 20 38 01.33 -00 39 01.3 19.4   704 – Lincoln Laboratory ETS, New Mexico MPS 39376
2001 08 25.49202 04 02 13.17 +27 34 33.9 20.1   644 – Palomar Mountain/NEAT MPS 39376
2001 08 25.50085 04 02 13.78 +27 34 35.0 20.0   644 – Palomar Mountain/NEAT MPS 39376
2001 08 25.51202 04 02 14.50 +27 34 36.9 20.3   644 – Palomar Mountain/NEAT MPS 39376
2001 09 20.40441 04 23 57.87 +27 57 46.6 18.8   704 – Lincoln Laboratory ETS, New Mexico MPS 36631
2001 09 20.41956 04 23 58.32 +27 57 45.7 19.8   704 – Lincoln Laboratory ETS, New Mexico MPS 36631
2001 09 20.43392 04 23 58.78 +27 57 46.2 19.8   704 – Lincoln Laboratory ETS, New Mexico MPS 36631
2001 09 20.44873 04 23 59.30 +27 57 46.1 19.5   704 – Lincoln Laboratory ETS, New Mexico MPS 36631
2001 09 20.46322 04 23 59.75 +27 57 45.3 19.7   704 – Lincoln Laboratory ETS, New Mexico MPS 36631
2001 09 22.40438 04 25 01.22 +27 56 58.3 18.9   704 – Lincoln Laboratory ETS, New Mexico MPS 36631
2001 09 22.41847 04 25 01.68 +27 56 57.7 19.6   704 – Lincoln Laboratory ETS, New Mexico MPS 36631
2001 09 22.43264 04 25 02.07 +27 56 57.1 19.2   704 – Lincoln Laboratory ETS, New Mexico MPS 36631
2001 09 22.44693 04 25 02.46 +27 56 56.4 19.6   704 – Lincoln Laboratory ETS, New Mexico MPS 36631
2001 09 22.46113 04 25 02.87 +27 56 56.5 19.5   704 – Lincoln Laboratory ETS, New Mexico MPS 36631
2001 09 23.40483 04 25 30.57 +27 56 24.9 18.7   704 – Lincoln Laboratory ETS, New Mexico MPS 43904
2001 09 23.41916 04 25 30.97 +27 56 23.9 19.4   704 – Lincoln Laboratory ETS, New Mexico MPS 43904
2001 09 23.43378 04 25 31.43 +27 56 24.7 19.0   704 – Lincoln Laboratory ETS, New Mexico MPS 43904
2001 10 14.32987 04 29 16.35 +27 19 45.0 18.9   704 – Lincoln Laboratory ETS, New Mexico MPS 38187
2001 10 14.34583 04 29 16.21 +27 19 41.3 20.0   704 – Lincoln Laboratory ETS, New Mexico MPS 38187
2001 10 14.36157 04 29 16.05 +27 19 37.8 20.5   704 – Lincoln Laboratory ETS, New Mexico MPS 38187
2001 10 14.37735 04 29 15.89 +27 19 35.8 19.6   704 – Lincoln Laboratory ETS, New Mexico MPS 38187
2001 10 14.39311 04 29 15.64 +27 19 32.9 19.5   704 – Lincoln Laboratory ETS, New Mexico MPS 38187
2001 10 21.42709 04 27 31.58 +26 54 59.3 18.9   704 – Lincoln Laboratory ETS, New Mexico MPS 40540
2001 10 21.44371 04 27 31.19 +26 54 54.2 19.5   704 – Lincoln Laboratory ETS, New Mexico MPS 40540
2001 10 21.46031 04 27 30.77 +26 54 51.1 18.8   704 – Lincoln Laboratory ETS, New Mexico MPS 40540
2001 10 21.47691 04 27 30.38 +26 54 47.2 18.6   704 – Lincoln Laboratory ETS, New Mexico MPS 40540
2001 10 27.36509 04 24 54.08 +26 28 50.2 19.0   704 – Lincoln Laboratory ETS, New Mexico MPS 41950
2001 10 27.38239 04 24 53.46 +26 28 45.8 18.6   704 – Lincoln Laboratory ETS, New Mexico MPS 41950
2001 10 27.39907 04 24 52.95 +26 28 41.5 18.8   704 – Lincoln Laboratory ETS, New Mexico MPS 41950
2001 11 12.35431 04 13 19.19 +24 53 11.6 18.0   704 – Lincoln Laboratory ETS, New Mexico MPS 41950
2001 11 12.36879 04 13 18.38 +24 53 05.3 18.3   704 – Lincoln Laboratory ETS, New Mexico MPS 41950
2001 11 12.38325 04 13 17.59 +24 52 59.7 18.5   704 – Lincoln Laboratory ETS, New Mexico MPS 41950
2001 11 12.39772 04 13 16.80 +24 52 53.2 18.5   704 – Lincoln Laboratory ETS, New Mexico MPS 41950
2001 11 12.41218 04 13 16.01 +24 52 47.6 18.2   704 – Lincoln Laboratory ETS, New Mexico MPS 41950
2001 11 19.17251 04 06 59.89 +24 02 10.3 17.6 R 699 – Lowell Observatory-LONEOS MPS 41950
2001 11 19.18966 04 06 58.88 +24 02 03.6   699 – Lowell Observatory-LONEOS MPS 41950
2001 11 19.20685 04 06 57.83 +24 01 55.7   699 – Lowell Observatory-LONEOS MPS 41950
2001 11 19.22407 04 06 56.81 +24 01 47.7   699 – Lowell Observatory-LONEOS MPS 41950
2001 11 19.29296 04 06 52.68 +24 01 16.3 18.0   704 – Lincoln Laboratory ETS, New Mexico MPS 41950
2001 11 19.30763 04 06 51.84 +24 01 09.3 18.1   704 – Lincoln Laboratory ETS, New Mexico MPS 41950
2001 11 19.32230 04 06 50.95 +24 01 02.4 18.1   704 – Lincoln Laboratory ETS, New Mexico MPS 41950
2001 11 19.33697 04 06 50.07 +24 00 55.4 17.7   704 – Lincoln Laboratory ETS, New Mexico MPS 41950
2001 11 19.35164 04 06 49.21 +24 00 48.5 17.8   704 – Lincoln Laboratory ETS, New Mexico MPS 41950
2001 11 21.29730 04 04 56.65 +23 45 21.1 17.3   704 – Lincoln Laboratory ETS, New Mexico MPS 43904
2001 11 21.31189 04 04 55.77 +23 45 14.0 17.6   704 – Lincoln Laboratory ETS, New Mexico MPS 43904
2001 11 21.32654 04 04 54.93 +23 45 07.5 17.8   704 – Lincoln Laboratory ETS, New Mexico MPS 43904
2001 11 21.34114 04 04 54.02 +23 45 00.0 17.8   704 – Lincoln Laboratory ETS, New Mexico MPS 43904
2001 11 21.35574 04 04 53.14 +23 44 53.2 17.7   704 – Lincoln Laboratory ETS, New Mexico MPS 43904
2001 11 24.22282 04 02 06.22 +23 21 33.0 17.5   704 – Lincoln Laboratory ETS, New Mexico MPS 43904
2001 11 24.23734 04 02 05.38 +23 21 26.1 17.8   704 – Lincoln Laboratory ETS, New Mexico MPS 43904
2001 11 24.25313 04 02 04.39 +23 21 18.0 18.9   704 – Lincoln Laboratory ETS, New Mexico MPS 43904
2001 11 24.26764 04 02 03.49 +23 21 10.6 18.3   704 – Lincoln Laboratory ETS, New Mexico MPS 43904
2001 11 24.28215 04 02 02.59 +23 21 03.8 18.2   704 – Lincoln Laboratory ETS, New Mexico MPS 43904
2001 11 25.30852 04 01 02.75 +23 12 36.1 17.7   704 – Lincoln Laboratory ETS, New Mexico MPS 43904
2001 11 25.30922 04 01 02.66 +23 12 35.2 17.5   704 – Lincoln Laboratory ETS, New Mexico MPS 43904
2001 11 25.32309 04 01 01.85 +23 12 28.6 18.1   704 – Lincoln Laboratory ETS, New Mexico MPS 43904
2001 11 25.32522 04 01 01.72 +23 12 27.2 18.3   704 – Lincoln Laboratory ETS, New Mexico MPS 43904
2001 11 25.33869 04 01 00.91 +23 12 20.9 18.3   704 – Lincoln Laboratory ETS, New Mexico MPS 43904
2001 11 25.33996 04 01 00.81 +23 12 19.7 18.6   704 – Lincoln Laboratory ETS, New Mexico MPS 43904
2001 12 08.11305 03 49 14.22 +21 24 34.9 17.9 R 699 – Lowell Observatory-LONEOS MPS 43904
2001 12 08.13885 03 49 12.81 +21 24 22.4   699 – Lowell Observatory-LONEOS MPS 43904
2001 12 08.16474 03 49 11.54 +21 24 09.5   699 – Lowell Observatory-LONEOS MPS 43904
2001 12 08.19070 03 49 10.16 +21 23 55.7   699 – Lowell Observatory-LONEOS MPS 43904
2001 12 10.21947 03 47 29.97 +21 07 02.7 17.8   704 – Lincoln Laboratory ETS, New Mexico MPS 43904
